[Iaude] MPEC E107: 2024 EH2 [a=1.29,e=0.39,i=10.5,H=26.4]

mpec at cfa.harvard.edu mpec at cfa.harvard.edu
Thu Mar 7 06:49:01 EST 2024


M.P.E.C. 2024-E107                                Issued 2024 March 7, 11:47 UT

     The Minor Planet Electronic Circulars contain information on unusual
         minor planets, routine data on comets and natural satellites,
         and occasional editorial announcements.  They are published
    on behalf of Division F of the International Astronomical Union by the
          Minor Planet Center, Smithsonian Astrophysical Observatory,
                          Cambridge, MA 02138, U.S.A.
			  
             Prepared using the Tamkin Foundation Computer Network

                              MPC at CFA.HARVARD.EDU
            URL https://www.minorplanetcenter.net/    ISSN 1523-6714

                                    2024 EH2                                    


Observations:
     K24E02H 1C2024 03 05.23674 08 39 11.67 +16 35 39.0          19.1 GVEE107703
     K24E02H 1C2024 03 05.23904 08 39 17.16 +16 33 43.6          19.1 GVEE107703
     K24E02H 1C2024 03 05.25278 08 39 49.93 +16 22 13.4          19.3 GVEE107703
     K24E02H* C2024 03 06.25735209 10 54.171+05 46 47.01         19.3 GVEE107U68
     K24E02H  C2024 03 06.26127609 10 58.895+05 44 55.80         19.3 GVEE107U68
     K24E02H  C2024 03 06.27850309 11 19.384+05 36 52.04         19.3 GVEE107U68
     K24E02H  C2024 03 06.28242609 11 23.972+05 35 02.02         19.3 GVEE107U68
     K24E02H KB2024 03 06.82412309 21 53.47 +01 54 55.0          19.1 GXEE107I93
     K24E02H KB2024 03 06.83249209 22 01.00 +01 51 58.7          19.8 GXEE107I93
     K24E02H KB2024 03 06.84078209 22 08.39 +01 49 04.7          19.7 GXEE107I93
     K24E02H KC2024 03 06.88361009 22 46.21 +01 34 20.6          19.2 GXEE107958
     K24E02H KC2024 03 06.89012309 22 51.82 +01 32 07.4                XEE107958
     K24E02H KC2024 03 06.89663509 22 57.32 +01 29 54.7          19.4 GXEE107958
     K24E02H KB2024 03 06.97405809 24 00.351+01 03 37.09         19.4 GXEE107B72
     K24E02H KB2024 03 06.98399509 24 08.673+01 00 21.88         19.4 GXEE107B72
     K24E02H KB2024 03 06.99408609 24 17.096+00 57 05.37         19.3 GXEE107B72
     K24E02H |C2024 03 07.03620009 25 12.260+00 50 29.20         19.7 GVEE107807
     K24E02H |C2024 03 07.03892009 25 14.400+00 49 37.30         19.3 GVEE107807
     K24E02H |C2024 03 07.04167009 25 16.590+00 48 44.60         19.4 GVEE107807
     K24E02H |C2024 03 07.04429009 25 18.650+00 47 54.50         19.9 GVEE107807
     K24E02H KB2024 03 07.14409 09 26 41.22 +00 10 55.9          19.8 GVEE107734
     K24E02H KB2024 03 07.15000 09 26 45.69 +00 09 08.9          19.4 GVEE107734
     K24E02H KB2024 03 07.15579 09 26 49.96 +00 07 23.8          19.6 GVEE107734
     K24E02H KB2024 03 07.16737 09 26 58.57 +00 03 55.9          19.3 GVEE107734

Observer details:
703 Catalina Sky Survey.  Observer K. W. Wierzchos.  Measurers B. Gray, D.
    Rankin, F. C. Shelly.  0.68-m Schmidt + 10K CCD.
734 Farpoint Observatory, Eskridge.  Observers D. Cromer, G. Hug, D. Goodin,
    R. Valentine.  Measurer D. Cromer.  0.69-m f/3.54 reflector + CMO.
807 Cerro Tololo Observatory, La Serena.  Observers T. Linder, R. Holmes.
    0.61-m f/6.8 Ritchey-Chretien + CCD.
958 Observatoire de Dax.  Observers P. Dupouy, J. B. de Vanssay.  Measurer P.
    Dupouy.  0.43-m f/2.7 Reflector + CCD.
B72 Soerth Observatory.  Observer B. Koch.  0.36-m f/7.6 reflector + CMO.
I93 St Pardon de Conques.  Observer F. Losse.  0.40-m f/3.7 reflector + CCD.
U68 JPL SynTrack Robotic Telescope, Auberry.  Observers N. Saini, C. Zhai, R.
    Trahan, M. Zhan, M. Shao.  0.28-m Reflector + CCD.

Orbital elements:
2024 EH2                                                 Earth MOID = 0.0060 AU
Epoch 2024 Mar. 31.0 TT = JDT 2460400.5                 Veres                   
M  54.25886              (2000.0)            P               Q                  
n   0.67043525     Peri.  102.81040     +0.04967338     -0.99750970             
a   1.2928997      Node   344.08445     +0.83085024     +0.06909109             
e   0.3942464      Incl.   10.52058     +0.55427469     -0.01417108             
P   1.47           H   26.49          G   0.15           U   7                  
Residuals in seconds of arc
240305 703  0.0   0.1+    240306 I93  0.2+  0.2+    240307 807  0.1-  0.0
240305 703  0.3-  0.5+    240306 I93  0.1-  0.0     240307 807  0.2-  0.1+
240305 703  0.3+  0.6-    240306 958  0.5+  0.5-    240307 807  0.1+  0.0
240306 U68  0.1-  0.1+    240306 958  0.8+  0.4-    240307 807  0.2+  0.1-
240306 U68  0.4+  0.2-    240306 958  0.1-  0.1-    240307 734  0.5-  0.0
240306 U68  0.2+  0.2+    240306 B72  0.1-  0.2+    240307 734  0.3+  0.1+
240306 U68  0.6-  0.1-    240306 B72  0.1+  0.2-    240307 734  0.3-  0.4-
240306 I93  0.3+  0.3+    240306 B72  0.2+  0.1+    240307 734  0.4+  0.1+

Ephemeris:
2024 EH2                 a,e,i = 1.29, 0.39, 11                  q = 0.7832
Date    TT    R. A. (2000) Decl.     Delta      r    Elong.  Phase     V
2024 02 06    22 31 09.6 +19 30 38   0.1943  0.8466    40.1   131.4    28.4
...
2024 02 21    22 46 54.7 +25 41 42   0.08293 0.9243    37.5   139.4    27.7
...
2024 02 29    23 41 07.6 +38 29 24   0.02781 0.9723    48.3   130.5    24.4
...
2024 03 06    09 04 43.7 +08 00 51   0.02065 1.0100   149.6    29.8    19.4
2024 03 07    09 24 28.5 +00 59 36   0.02678 1.0163   153.2    26.1    19.9
2024 03 08    09 36 40.4 -03 21 13   0.03330 1.0227   154.3    24.9    20.3
...
2024 03 14    10 04 28.4 -12 34 35   0.07499 1.0614   152.6    25.5    22.2
...
2024 03 22    10 16 24.3 -15 16 47   0.1335  1.1133   149.3    27.2    23.6
...
2024 04 06    10 30 32.9 -16 03 17   0.2517  1.2093   142.1    30.5    25.2

M. P. C. Staff               (C) Copyright 2024 MPC           M.P.E.C. 2024-E107





More information about the Iaude mailing list